Rbgn^[z[y[W
メイン
   新天体発見情報
     Comet P/2013 EW90 = P/2020 Y4 (Tenagra)
投稿するにはまず登録を

フラット表示 前のトピック | 次のトピック
投稿者 スレッド
佐藤裕久
投稿日時: 2021-1-25 18:38
モデレータ
登録日: 2005-6-12
居住地: 日本
投稿: 2590
オンライン
Comet P/2013 EW90 = P/2020 Y4 (Tenagra)

E. Schwab (Egelsbach, ドイツ)の通報によると、1月13日UT、スペイン、Calar Altoにある
0.8-m f/3 Schmidt反射望遠鏡で得た画像からP/2013 EW90 (CBET 3522を参照))を検出
した。この彗星は13日と14日に得た60秒露出12枚のスタックでは恒星状であった。

検出位置は次のとおり、

     2021 UT             R.A. (2000) Decl.       Mag.   Observer
     Jan. 13.00613   10 08 20.18   - 2 50 43.1   19.7   Schwab
          13.01839   10 08 19.97   - 2 50 38.8   19.7     "
          13.03065   10 08 19.76   - 2 50 34.3   19.8     "
          14.04625   10 08 02.70   - 2 44 39.3   19.6     "
          14.05544   10 08 02.54   - 2 44 35.9   19.7     "
          14.06463   10 08 02.38   - 2 44 32.5   19.5     "
          14.07383   10 08 02.20   - 2 44 29.5   19.6     "

NK 2899およびICQ's 2018, 2019 and 2020 Comet Handbookの中野主一氏の予報に対し、Delta(T)  
は、-0.11 dayであった。MPC 88695のG. V. Williamsの予報に対するDelta(T)は、-0.12 dayで
あった。彗星年表2020の佐藤裕久の予報に対する修正値は、Delta(T) = -0.13dayであった。

MPCの連結軌道要素と位置推算表は次のとおり、

Orbital elements:
    P/2013 EW90 (Tenagra)                                                       
Epoch 2012 Sept. 30.0 TT = JDT 2456200.5                                        
T 2012 Oct. 11.65276 TT                                 Rudenko                 
q   3.3002778            (2000.0)            P               Q                  
n   0.11850169     Peri.  345.99757     -0.84475148     -0.50498507             
a   4.1050616      Node   160.36252     +0.52758546     -0.84133654             
e   0.1960467      Incl.   31.81311     +0.08971356     +0.19272496             
P   8.32                                                                        
From 67 observations 2013 Feb. 16-2020 Dec. 25, mean residual 0".7.             
                                                                                
    P/2013 EW90 (Tenagra)                                                       
Epoch 2021 Mar. 7.0 TT = JDT 2459280.5                                          
T 2021 Feb. 15.45556 TT                                 Rudenko                 
q   3.3140616            (2000.0)            P               Q                  
n   0.11802273     Peri.  346.31183     -0.84687469     -0.50124714             
a   4.1161602      Node   160.29407     +0.52390266     -0.84371444             
e   0.1948657      Incl.   31.79009     +0.09126473     +0.19208655             
P   8.35                                                                        
From 80 observations 2013 Feb. 16-2021 Jan. 14, mean residual 0".6.             
                                                                                
    P/2013 EW90 (Tenagra)                                                       
Epoch 2029 July 3.0 TT = JDT 2462320.5                                          
T 2029 June 15.94265 TT                                 Rudenko                 
q   3.2973647            (2000.0)            P               Q                  
n   0.11863707     Peri.  346.40328     -0.84735792     -0.50026450             
a   4.1019380      Node   160.25673     +0.52304855     -0.84419430             
e   0.1961447      Incl.   31.81839     +0.09167747     +0.19253936             
P   8.31                                                                        
From 80 observations 2013 Feb. 16-2021 Jan. 14, mean residual 0".6.             
                                                                                
    P/2013 EW90 (Tenagra)                                                       
Epoch 2020 Dec. 17.0 TT = JDT 2459200.5                                         
T 2021 Feb. 15.54624 TT                                 Rudenko                 
q   3.3140524            (2000.0)            P               Q                  
n   0.11801437     Peri.  346.32749     -0.84701723     -0.50101053             
a   4.1163546      Node   160.29478     +0.52366293     -0.84386569             
e   0.1949060      Incl.   31.78890     +0.09131785     +0.19203940             
P   8.35                                                                        
From 80 observations 2013 Feb. 16-2021 Jan. 14, mean residual 0".6.             
                                                                                
Ephemeris:
Date    TT    R. A. (2000) Decl.     Delta      r    Elong.  Phase   m1
2020 12 17    10 08 55.0 -04 13 12   2.8734  3.3236   108.8    16.3  19.5
...
2021 01 01    10 10 16.1 -03 44 30   2.6751  3.3195   123.4    14.3  19.3
...
2021 01 09    10 09 16.4 -03 11 55   2.5816  3.3178   131.7    12.8  19.3
...
2021 01 15    10 07 45.7 -02 38 52   2.5190  3.3167   138.1    11.4  19.2
2021 01 16    10 07 26.9 -02 32 37   2.5093  3.3165   139.2    11.2  19.2
2021 01 17    10 07 07.1 -02 26 10   2.4998  3.3163   140.2    10.9  19.2
...
2021 01 23    10 04 48.7 -01 43 06   2.4478  3.3155   146.8     9.4  19.1
...
2021 01 31    10 00 57.7 -00 34 35   2.3927  3.3147   155.6     7.1  19.1
...
2021 02 15    09 52 12.5 +02 02 18   2.3385  3.3141   169.3     3.2  19.0

(MPEC 2021-B17、CBET 4918、oaa-comet 1502)

フラット表示 前のトピック | 次のトピック

題名 投稿者 日時
 » Comet P/2013 EW90 = P/2020 Y4 (Tenagra) 佐藤裕久 2021-1-25 18:38

投稿するにはまず登録を
 
© 1999 Tsutomu Seki.